Vertical_Velocity
1 0 1 -0 -0 2 1 0 0 1 0 1 0 0 1 1 1 0 -0 0 2 1 1 -0 -0 1 1 0 -2 -1 -1 1 -1 0 -2 -2 -2 0 -0 -1 -1 -1 1 3 2
1 1 1 2 0 -0 0 1 0 1 0 -0 0 -0 0 0 0 1 1 1 -1 0 -0 -1 -1 -2 -0 1 1 -2 -2 -0 -2 -1 -1 0 1 1 -2 -4 3 -2 3 1 1
1 1 -1 -1 -0 0 1 0 1 -0 0 -1 0 -1 -1 1 0 1 1 -1 -0 -0 -1 -1 -1 -2 -1 -0 1 -3 -0 -1 -1 0 -0 -1 -1 0 1 -5 -2 -1 -1 0 1
1 1 0 -1 -1 -1 -0 -0 -1 1 0 -1 -1 0 -1 -1 -2 1 1 -0 -1 -1 1 -0 -1 -0 -1 1 1 -1 1 -0 -0 -1 -0 2 -1 2 -3 5 2 0 -3 -0 -1
1 1 1 1 -0 -0 -0 -0 -1 -0 -0 0 -0 0 0 -1 -2 -0 -0 0 -0 -0 0 0 -0 -0 -0 0 0 -1 -1 0 -1 -3 1 0 -3 -2 -4 -2 -1 0 0 -3 -4
0 0 1 1 -0 -0 0 -0 0 0 -0 -2 -1 -1 0 -1 2 -1 0 -0 -0 -0 -1 -1 -0 -1 1 1 -1 1 -1 -1 -2 -5 0 -1 -2 -3 -1 -3 -3 1 1 -1 -1
2 0 1 1 1 1 0 -1 0 0 -0 -1 -1 -1 1 -6 -2 -1 -2 -1 -1 -1 -2 -1 -1 -1 1 -1 0 -0 1 1 -4 2 1 -1 -1 -8 -0 -0 1 1 -0 0 -0
0 0 0 1 -0 1 -0 1 0 -0 -1 -1 -0 -0 1 -2 -1 -1 -1 -1 -1 -2 -1 -1 0 -1 0 -1 2 -1 -1 -0 -1 -2 -1 2 3 -4 -2 -0 -1 -2 -3 -2 -2
1 1 1 0 -1 0 -1 -1 -0 -1 -1 -1 -1 -3 2 3 -1 -0 0 0 -2 -1 -1 -0 -0 1 -0 1 -1 -1 -1 2 -0 -4 -1 -1 9 -8 -4 -3 -5 -4 -2 -0 -1
-1 -0 0 -1 -1 1 -1 -1 -1 -0 -1 -2 0 -6 4 -1 -0 -2 -1 -1 -1 -2 -2 -2 -3 1 1 -6 -1 -1 -0 3 0 -3 -3 -2 6 6 -5 1 -4 -1 -0 -0 0
0 1 -1 -1 0 0 1 -0 1 -4 -1 -3 3 -4 0 1 0 -1 -1 -2 -1 -0 -1 -5 -4 6 -8 -3 1 -1 -2 3 0 -10 -9 -6 1 6 -3 -6 -3 -1 0 -4 -3
1 0 -1 0 1 1 1 1 1 -2 -1 -4 -3 0 -2 0 1 -1 -2 -3 -2 -1 -1 -3 5 -4 -1 0 -0 -2 -2 4 5 -8 -9 -1 2 -2 0 -2 0 -3 -2 -2 -3
0 0 -0 -2 -0 5 2 2 -1 -3 -10 2 -2 2 0 -4 0 5 -4 -0 2 -1 0 -4 0 1 -1 -2 -5 -1 -2 1 -4 -4 -2 -5 8 0 -3 -1 -3 -1 -0 2 1
1 -0 1 -4 -1 1 12 -4 -1 -2 -22 12 -4 -7 -1 2 -11 4 -2 -2 -4 2 -2 -8 9 0 -3 0 -8 1 -6 -3 -0 -5 1 -1 -17 9 -0 -3 -2 -2 -4 -2 -3
1 -1 -1 1 0 4 4 -1 -1 3 -49 -3 1 5 5 -4 6 5 1 -2 -3 2 -2 7 3 0 -1 -4 -6 2 1 -2 -3 -4 -8 15 -23 14 6 5 -2 -1 -3 -2 -0
2 3 -7 -3 6 13 3 1 1 -9 -42 -15 -3 1 2 3 2 1 -0 -1 0 -2 0 -2 -1 1 2 -2 2 1 1 -2 -2 -3 -16 14 -16 13 9 3 6 6 4 -0 -3
0 3 -6 -3 28 0 -4 -4 -7 -47 -2 -9 5 2 -1 0 1 0 3 1 -4 -6 4 -4 0 0 1 0 -3 1 -0 -6 -7 -6 -5 -1 -15 24 -2 0 2 3 0 -1 1
7 -9 -3 8 12 -10 4 3 -55 14 5 6 3 2 3 -1 2 -1 -2 -1 2 -0 2 -3 -1 1 6 2 -3 -0 -2 -1 -16 -6 -4 2 -8 9 1 3 2 -5 0 1 -4
3 3 -5 18 18 10 3 -10 -39 20 18 7 4 -5 4 2 -1 -3 -1 -0 0 4 -1 -1 -1 1 -1 -0 -2 9 -3 0 -9 -5 -18 1 2 -0 10 -7 -2 -4 -6 -7 0
6 4 -8 12 12 21 32 -56 -17 13 4 1 -4 1 3 7 -9 -1 -0 9 4 4 -5 -7 -7 1 2 -3 0 -1 4 -6 -1 -15 -22 2 -9 -4 9 12 3 -4 1 -4 -6
17 16 -5 6 19 35 -13 -46 -12 9 3 1 5 -3 3 -5 3 -4 -2 -1 5 6 -3 0 -3 2 -0 5 5 -4 -1 -0 3 -4 -11 -22 2 9 1 -5 11 1 -3 -2 1
21 10 -0 23 32 -1 -20 26 14 2 -1 -5 4 3 2 4 -0 -3 -6 8 1 6 -2 2 -10 -6 5 1 -1 -1 -4 -1 -9 3 -6 -4 -42 -4 5 -2 0 3 -2 -6 -2
6 23 -3 19 -5 -2 2 -4 -11 -5 1 -1 2 6 9 1 -11 4 6 8 2 4 0 6 -20 -2 1 -8 3 1 6 3 2 6 -4 -8 -18 6 -3 0 -4 2 -1 -1 -1
17 12 -0 -7 -3 6 2 -4 -14 0 -0 -5 -3 7 2 1 -3 -3 0 3 3 6 1 3 -9 -11 -7 3 1 -4 3 3 5 -7 14 -8 -19 3 0 -5 -1 -4 -3 -2 -2
15 -6 2 -15 -14 3 11 9 13 -3 4 3 -3 -10 7 -1 9 -11 4 5 1 -3 4 -4 -10 3 -0 -1 -2 -13 -2 4 5 9 1 -0 -24 22 3 -3 -2 -5 -2 -2 0
11 10 1 4 8 13 14 -11 6 1 6 2 -2 5 2 -1 10 7 12 2 7 6 3 1 -13 9 -8 1 0 -18 3 10 8 2 -0 -7 -21 18 4 -10 2 1 -2 -6 -3
2 4 7 5 5 13 1 5 -0 7 6 18 19 20 9 8 5 9 15 9 1 4 7 5 6 5 -13 3 0 -61 28 6 10 3 8 -11 18 6 5 -2 2 5 1 1 2
Height
5846 5848 5849 5850 5852 5854 5855 5857 5858 5859 5860 5861 5862 5863 5864 5864 5865 5865 5866 5867 5868 5868 5869 5869 5869 5869 5869 5868 5868 5867 5867 5866 5865 5865 5865 5865 5864 5863 5862 5860 5862 5862 5862 5862 5862
5842 5844 5846 5847 5849 5850 5852 5854 5855 5856 5857 5858 5859 5860 5861 5861 5862 5862 5864 5864 5865 5866 5866 5866 5866 5866 5866 5865 5865 5864 5864 5863 5863 5862 5862 5862 5862 5861 5861 5860 5860 5859 5860 5859 5859
5838 5840 5842 5843 5845 5846 5848 5849 5851 5852 5854 5854 5855 5857 5857 5857 5858 5859 5860 5861 5861 5862 5862 5862 5862 5863 5862 5862 5861 5860 5859 5859 5859 5860 5860 5860 5859 5858 5857 5858 5858 5857 5855 5855 5855
5832 5834 5836 5839 5840 5842 5843 5844 5846 5848 5849 5850 5851 5852 5853 5854 5855 5855 5855 5856 5857 5857 5858 5858 5858 5858 5858 5857 5856 5856 5855 5855 5855 5856 5856 5856 5855 5854 5853 5854 5853 5853 5853 5851 5850
5825 5828 5830 5832 5834 5836 5838 5840 5841 5843 5844 5845 5846 5847 5848 5848 5849 5850 5850 5851 5852 5852 5853 5853 5853 5852 5852 5852 5852 5851 5850 5850 5850 5850 5851 5851 5851 5849 5847 5848 5848 5847 5848 5848 5847
5818 5821 5824 5826 5828 5830 5832 5833 5835 5837 5838 5839 5840 5842 5843 5843 5844 5845 5845 5846 5846 5846 5847 5847 5847 5847 5847 5847 5848 5848 5847 5846 5845 5844 5846 5847 5846 5843 5843 5843 5842 5842 5842 5842 5842
5810 5813 5816 5818 5820 5822 5824 5826 5828 5829 5831 5832 5834 5835 5837 5837 5838 5838 5839 5840 5840 5841 5841 5841 5841 5841 5842 5841 5842 5842 5843 5843 5841 5840 5840 5841 5842 5838 5838 5837 5838 5838 5837 5836 5836
5801 5805 5807 5810 5812 5815 5816 5818 5820 5822 5823 5824 5826 5828 5829 5831 5831 5832 5832 5833 5833 5834 5834 5834 5835 5835 5836 5835 5835 5835 5836 5837 5837 5836 5834 5835 5838 5833 5832 5831 5831 5831 5831 5830 5828
5792 5795 5798 5800 5803 5806 5808 5810 5812 5813 5815 5816 5819 5820 5822 5824 5824 5824 5824 5825 5826 5827 5827 5827 5828 5829 5831 5828 5828 5829 5829 5831 5831 5830 5827 5826 5831 5829 5826 5826 5825 5824 5823 5822 5822
5783 5786 5788 5791 5794 5797 5799 5801 5802 5804 5807 5808 5809 5812 5814 5815 5816 5816 5816 5817 5818 5819 5820 5820 5821 5822 5824 5821 5822 5821 5822 5823 5825 5823 5819 5818 5819 5824 5821 5821 5819 5817 5817 5816 5816
5773 5776 5779 5781 5784 5788 5790 5792 5795 5796 5797 5799 5801 5802 5804 5806 5808 5808 5809 5810 5811 5811 5812 5812 5813 5817 5814 5814 5814 5814 5814 5814 5818 5814 5812 5813 5811 5814 5815 5815 5814 5812 5812 5811 5809
5763 5766 5769 5772 5774 5778 5781 5782 5784 5785 5788 5789 5790 5793 5794 5796 5798 5800 5802 5803 5803 5804 5804 5805 5805 5807 5807 5806 5806 5806 5805 5807 5806 5805 5803 5804 5803 5806 5805 5804 5803 5803 5802 5802 5801
5753 5756 5759 5761 5765 5769 5771 5773 5773 5774 5775 5781 5781 5783 5784 5786 5789 5792 5794 5794 5795 5795 5797 5795 5797 5800 5799 5799 5799 5797 5798 5797 5796 5796 5794 5793 5792 5797 5796 5794 5792 5793 5792 5792 5792
5742 5745 5749 5752 5756 5760 5763 5763 5764 5764 5762 5770 5773 5772 5776 5778 5778 5785 5785 5786 5785 5787 5786 5785 5790 5789 5790 5792 5791 5790 5791 5789 5788 5786 5786 5787 5785 5785 5788 5785 5785 5784 5784 5784 5782
5731 5735 5738 5742 5746 5749 5751 5751 5753 5755 5751 5757 5762 5766 5768 5770 5772 5775 5776 5776 5775 5777 5778 5779 5778 5780 5781 5781 5781 5782 5781 5780 5778 5777 5776 5778 5778 5776 5778 5779 5778 5776 5774 5773 5773
5718 5722 5725 5729 5735 5737 5738 5740 5742 5744 5737 5744 5748 5755 5758 5761 5762 5762 5765 5766 5767 5766 5768 5768 5769 5770 5772 5771 5771 5771 5770 5769 5768 5768 5766 5772 5769 5764 5765 5766 5766 5765 5765 5765 5764
5703 5707 5711 5716 5724 5721 5722 5725 5727 5725 5732 5736 5738 5744 5748 5751 5752 5753 5753 5754 5755 5756 5758 5758 5760 5760 5761 5762 5762 5760 5759 5758 5757 5759 5758 5757 5756 5757 5755 5754 5753 5753 5752 5750 5748
5687 5691 5698 5704 5705 5704 5707 5709 5708 5716 5722 5725 5728 5732 5735 5738 5740 5740 5741 5742 5743 5745 5747 5747 5750 5751 5753 5753 5752 5751 5751 5751 5749 5746 5747 5747 5745 5745 5743 5742 5742 5741 5741 5738 5735
5674 5678 5685 5694 5694 5690 5689 5685 5696 5707 5713 5716 5716 5718 5720 5724 5727 5728 5729 5731 5733 5734 5737 5737 5739 5741 5741 5741 5742 5741 5741 5742 5738 5738 5736 5736 5733 5734 5731 5730 5730 5729 5726 5725 5723
5661 5664 5670 5679 5680 5676 5673 5672 5686 5694 5698 5700 5703 5706 5708 5712 5712 5714 5717 5721 5723 5725 5725 5726 5727 5728 5729 5730 5730 5731 5733 5731 5731 5728 5724 5725 5724 5720 5720 5719 5716 5714 5712 5711 5709
5648 5645 5655 5663 5665 5656 5650 5665 5673 5679 5684 5685 5690 5694 5696 5699 5701 5702 5705 5706 5709 5712 5712 5713 5715 5716 5717 5717 5719 5718 5717 5718 5718 5713 5710 5712 5710 5705 5706 5707 5702 5698 5698 5694 5691
5631 5628 5642 5649 5645 5642 5647 5658 5665 5666 5670 5672 5675 5682 5684 5686 5688 5690 5691 5694 5694 5697 5698 5700 5699 5701 5703 5704 5704 5705 5707 5706 5701 5702 5698 5693 5698 5695 5696 5692 5689 5686 5681 5678 5675
5613 5617 5624 5630 5624 5629 5638 5643 5649 5653 5655 5658 5662 5668 5672 5674 5675 5678 5679 5680 5681 5684 5685 5686 5686 5688 5688 5689 5691 5693 5694 5692 5689 5686 5681 5678 5682 5683 5681 5678 5676 5673 5667 5662 5659
5600 5601 5605 5607 5614 5619 5626 5631 5635 5640 5642 5646 5649 5653 5659 5660 5662 5664 5666 5667 5669 5671 5672 5672 5673 5674 5677 5676 5677 5677 5678 5677 5673 5666 5667 5666 5668 5667 5665 5665 5660 5654 5650 5648 5644
5580 5581 5590 5594 5602 5608 5612 5619 5623 5626 5628 5631 5632 5639 5643 5646 5650 5651 5652 5653 5656 5657 5657 5655 5657 5658 5661 5661 5660 5662 5663 5660 5654 5654 5649 5657 5652 5654 5651 5645 5641 5638 5634 5630 5626
5565 5572 5577 5584 5590 5595 5597 5601 5608 5612 5616 5615 5619 5624 5628 5631 5636 5639 5640 5640 5640 5641 5641 5641 5641 5642 5642 5645 5645 5646 5650 5643 5642 5639 5636 5635 5635 5639 5631 5626 5624 5619 5614 5611 5608
5550 5558 5564 5568 5573 5578 5581 5587 5594 5597 5599 5603 5607 5608 5609 5616 5619 5622 5622 5623 5623 5626 5627 5627 5626 5627 5624 5627 5627 5625 5634 5631 5626 5626 5624 5616 5623 5619 5615 5609 5606 5602 5598 5594 5590